Timeline UpdatesTrip UpdatesNews PostsPvt PostsTravel TipsAdmin PostsConv PostsFollowed PostsChat RequestsBlog PostsPNR Posts

Disclaimer
Search
 
 
Thu Oct 2, 2014 22:01:44 ISTHomeTrainsΣChainsAtlasPNRForumGalleryNewsFAQTripsMembersLoginFeedback
No Recent News for this Train
Other Trains in the News **new
Latest...
.
Sun Mar 09, 2014 (04:40PM)
⇐ Return Journey: Train# 59385

59386/Panchvalley Fast Passenger

Time-Table HAS CHANGED.
Sep 05 (3:35AM)
Change Departure Station:
Change Arrival Station:
Post a Train Travel TipPost a Train Travel Tip **new
Post a Comment/Question/Picture/VideoPost a Comment/Question/Picture/Video
Pantry/Catering
✕ NO Pantry Car
✕ NO Catering
RSA - Rake Sharing
59385/59386 Panchvalley Passenger; 59319/59320 Ujjain Bhopal Passenger; 59379/59380 Indore Maksi Passenger; 59389/59390 Indore Bhopal Passenger
Rake/Coach Composition
loco-slr-gen-gen-gen-s3-s2-s1-b1-gen-gen-gen-gen-gen-slr
Loco
CWA-ET: RTM WDM-3A ET-INDB: ET WAM-4
News    PNR    Forum    Time-Table    Availability    Fare Chart    Map    Arr/Dep History    Trips    Gallery    ΣChains    X/O    Timeline    
Travel Time: 4h 4m    16 halts    Distance: 138 km    Avg Speed: 33 km/hr
Type: Mail/Express
Zone: WR/Western
Departs @ 21:05 (Avg on time)
Platform# 3
SMTWTFS
Chhindwara Junction/CWA 
Arrives @ 01:09 +1 night (Avg 21m late)
Platform# ???
SMTWTFS
Betul/BZU 

16 halts. 18 intermediate Stations between Chhindwara Junction and Betul

Show ALL intermediate Stations  Show Old Time-Table

#CodeStation NameX/OArrivesAvgDepartsAvgHaltPFDay#KmSpeedElevZoneAddress
1CWAChhindwara Junction (3)»  -21:05+0310.038675mSECRNH 69A Seoni Road, Madhya Pradesh
2GNWGangiwara (1)  21:26-21:27-1m--113.323714mCRChhindwara, Madhya Pradesh
3KUXKhirsadoh Junction (2)  21:47-21:48-1m--120.975769mCRChhindwara, Madhya Pradesh
4PUXParasia (2)  21:54+1621:56+172m--128.438775mCRDongar Parasia, Madhya Pradesh
5IKRIklehra (1)  22:06+2122:07+241m1134.730771mCRDongar Parasia, Madhya Pradesh
6PCLIPalachauri (1)  22:16+2422:17+251m1139.144787mCRDongar Parasia, Madhya Pradesh
7JNOJunnor Deo (2)  22:28+2722:29+291m--147.243762mCRDongar Parasia, Madhya Pradesh
8HRGHirdagarh (2)  22:43+3022:44+321m--157.341721mCRDongar Parasia, Madhya Pradesh
9MKDNMorkadhana (1)  22:52-22:53-1m1162.851747mCRNayagaon, Madhya Pradesh
10NVGNavegaon (1)  23:04+3323:05+341m1172.244794mCRNayagaon, Madhya Pradesh
11BQMBarelipur (1)  23:14-23:15-1m1178.862744mCRNayagaon, Madhya Pradesh
12BXYBordhal (1)  23:24+3723:25+371m1188.256710mCRAmla, Madhya Pradesh
13BCRDBarchi Road (1)  23:32-23:33-1m1194.750713mCRState Highway 26, Madhya Pradesh
14JMVJambara (1)  23:41+3923:42+411m11101.319706mCRAmla, Madhya Pradesh
15AMLAAmla Junction (5)X  00:25+800:40+1115m42114.965733mCRAmla Distt. Betul, Madhya Pradesh
16BYSBarsali (2)  00:49+3100:50+331m--2124.745699mCRAmla, Madhya Pradesh
17MALKMalkapur Road (1)XO  00:59+3001:00+301m12131.443668mCRBetul, Madhya Pradesh
18BZUBetul (3)•XO  01:09+2101:10+481m--2137.837644mCRBetul, Madhya Pradesh
19MJYMaramjhiri (2)XO  01:23+1:0501:24+1:311m--2145.952642mCRBetul, Madhya Pradesh
20GDYAGhoradongri (3)X  01:56+1:1601:57+1:181m--2173.858 CRBetul, Madhya Pradesh
21BBTRBarbatpur (3)X  02:09+1:3702:10+1:401m--2185.435394mCRBetul, Madhya Pradesh
22DOHDhodramohar (2)  02:29+1:3702:30+1:371m--2196.430376mCRBetul, Madhya Pradesh
23KQEKala Akhar (2)X  02:59+1:2903:00+1:291m--2211.149376mCRItarsi, Madhya Pradesh
24SAHLSaheli (2) new halt!!X  03:08+1:1903:10+1:252m--2217.68388mCRItarsi, Madhya Pradesh
25TAKUTaku (2)XO  03:39+1:0703:40+1:111m--2221.718390mCRItarsi, Madhya Pradesh
26KRTHKiratgarh (2)XO  04:19+4904:20+541m--2233.49369mCRItarsi, Madhya Pradesh
27ETItarsi Junction (7)OO  05:35+405:45+810m--2244.145329mWCRItarsi 461111, Madhya Pradesh
28PRKDPowerkheda  05:56+2305:57+241m--2252.454316mWCRItarsi, Madhya Pradesh
29HBDHoshangabad (2)X  06:08+2206:09+251m--2262.238308mWCRHoshangabad, Madhya Pradesh
30BNIBudni (2)X  06:20+2906:21+391m--2269.232311mWCRSehore 466445 Madhya pradesh, Madhya Pradesh
31BKABarkheraX  06:57+4006:58+401m--2288.662472mWCRBarkhera, Madhya Pradesh
32ODGObaidulla Ganj  07:09+4107:10+461m22300.0101 WCRObaidullaganj Raisen Dist., Madhya Pradesh
33MDDPMandi Dip (1)XO  07:18+5007:19+521m12313.560 WCRMandideep, Madhya Pradesh
34MSOMisrod (2)XO  07:29+5107:30+521m12323.410468mWCRBhopal, Madhya Pradesh
35HBJBhopal HabibGanj (5)XO  08:08+2908:10+292m22329.611496mWCRHabibGanj, Madhya Pradesh
36BPLBhopal Junction (6)X  08:45+2408:55+2310m--2335.931497mWCRBhopal, Madhya Pradesh
37BIHBairagarh (2)X  09:15+2609:16+271m12346.168522mWRBhopal, Madhya Pradesh
38SEHSehore (2)  09:41+2409:42+251m12374.570500mWRMP 466001, Madhya Pradesh
39KPPKalapipal (2)  10:07+2510:08+251m--2403.669487mWRState Highway 41, Madhya Pradesh
40SJPShujalpur (3)  10:20 10:19+2410:21 10:20+251m--2416.265453mWRShujalpur, Madhya Pradesh
41AKDAkodia (2)  10:34 10:32+2810:35 10:33+281m--2429.283460mWRDist. Shajapur, Madhya Pradesh
42KSHKali Sindh (2) new halt!!  10:46+3010:47+301m--2447.273443mWRShajapur, Madhya Pradesh
43BCHBerchha (2)  10:57+2810:58+281m--2459.331490mWRShajapur, Madhya Pradesh
44MKCMaksi Junction (3)  11:34+1811:36+182m--2478.261513mWRMakshi, Madhya Pradesh
45RCJRanyal Jasmiya  11:51+2111:52+211m--2493.552516mWRDevas, Madhya Pradesh
46DWXDewas Junction (2)  12:16+1812:18+242m12514.441541mWRDewas, Madhya Pradesh
47INDBIndore Junction BG (3)  13:15+11-32553.2-552mWRIndore 452001, Madhya Pradesh
Scroll to Top
Scroll to Bottom